www.pogodaiklimat.ru

Погода и климат >> Архив погоды >> Австрия >> Вена электроподстанция


ПОГОДА в Вене электроподстанция

  • Прогноз погоды в Вене электроподстанция
  • Монитор погоды в Вене электроподстанция

АРХИВ ПОГОДЫ в Вене электроподстанция

Время (UTC), дата Ветер
(напр.,м/с)
 
Видим.   Явления Облачность Т
(С)
Тd
(С)
f
(%)
Тe
(С)
Тes
(С)
Комфортность P
(гПа)
Po
(гПа)
Тmin
(С)
Tmax
(С)
R
(мм)
R24
(мм)
S
(см)
10 13.09 З 3 н/о н/о +24.6 +14.8 54 +27 +27 жарко 1029.2 1006.2
11 13.09 СЗ 4 н/о н/о +24.8 +14.3 52 +27 +27 жарко 1029.2 1006.2
12 13.09 СЗ 4 н/о н/о +25.4 +14.5 51 +28 +28 жарко 1028.7 1005.7
13 13.09 СЗ 4 н/о н/о +26.4 +14.3 47 +29 +29 жарко 1028.4 1005.5
14 13.09 СЗ 4 н/о н/о +24.9 +14.2 51 +27 +27 жарко 1028.2 1005.2
15 13.09 СЗ 3 н/о н/о +24.7 +14.6 53 +27 +27 жарко 1028.1 1005.1
16 13.09 СЗ 4 н/о н/о +24.4 +14.9 55 +27 +27 жарко 1028.1 1005.1 0.0
17 13.09 СЗ 3 н/о н/о +24.0 +15.0 57 +27 +27 жарко 1028.2 1005.1
18 13.09 СЗ 2 н/о н/о +23.1 +15.6 63 +27 +27 душно 1028.6 1005.5 +17.4 +26.4 0.0
19 13.09 СЗ 4 н/о н/о +22.8 +13.9 57 +26 +26 жарко 1029.0 1005.8
20 13.09 СЗ 3 н/о н/о +22.1 +14.2 61 +25 +25 комфорт 1029.0 1005.8
21 13.09 СЗ 2 н/о н/о +21.4 +14.4 64 +24 +24 комфорт 1029.6 1006.3
22 13.09 СЗ 2 н/о н/о +20.6 +14.6 68 +24 +24 комфорт 1029.7 1006.3
23 13.09 СЗ 2 н/о н/о +19.6 +14.4 72 +22 +22 комфорт 1029.9 1006.4
00 14.09 С 3 н/о н/о +18.8 +14.3 75 +20 +20 1029.9 1006.4
01 14.09 СВ 2 н/о н/о +18.7 +14.3 76 +20 +20 1030.0 1006.5
02 14.09 штиль 0 н/о н/о +18.0 +14.4 79 +18 +18 1030.2 1006.6
03 14.09 С 4 н/о н/о +18.4 +14.4 78 +19 +19 1030.2 1006.6
04 14.09 С 3 н/о н/о +17.6 +13.7 78 +18 +18 1030.9 1007.3
05 14.09 С 3 н/о н/о +16.4 +12.3 77 +16 +16 1031.4 1007.6
06 14.09 С 4 н/о н/о +16.8 +11.9 73 +16 +16 1031.7 1008.0 +16.3 +23.3
07 14.09 С 4 н/о н/о +17.3 +11.7 70 +17 +17 1032.4 1008.7
08 14.09 С 4 н/о н/о +17.6 +11.7 68 +17 +17 1032.6 1008.9
09 14.09 С 4 н/о н/о +18.7 +11.8 64 +19 +19 1032.6 1009.0
10 14.09 СВ 3 н/о н/о +19.5 +11.7 61 +21 +21 комфорт 1032.1 1008.6
11 14.09 С 2 н/о н/о +20.6 +12.1 58 +23 +23 комфорт 1031.5 1008.1
12 14.09 С 4 н/о н/о +20.2 +11.1 56 +22 +22 комфорт 1031.2 1007.7
13 14.09 С 4 н/о н/о +20.9 +11.3 54 +23 +23 комфорт 1030.7 1007.3
14 14.09 С 3 н/о н/о +21.9 +12.3 54 +24 +24 комфорт 1030.0 1006.7
15 14.09 С 3 н/о н/о +20.9 +11.1 53 +23 +23 комфорт 1029.7 1006.3
16 14.09 СВ 3 н/о н/о +20.4 +11.1 55 +22 +22 комфорт 1028.9 1005.5
17 14.09 СВ 3 н/о н/о +19.9 +11.0 56 +22 +22 комфорт 1028.9 1005.5
18 14.09 С 2 н/о н/о +18.4 +10.9 62 +19 +19 1029.3 1005.7 +16.7 +22.0
19 14.09 СВ 2 н/о н/о +17.6 +9.8 60 +18 +18 1029.5 1005.9
20 14.09 СВ 1 н/о н/о +16.6 +9.2 62 +18 +18 1029.9 1006.2
21 14.09 С 1 н/о н/о +15.2 +9.8 70 +16 +16 1030.3 1006.4
22 14.09 С 2 н/о н/о +14.1 +9.5 74 +14 +14 1030.3 1006.4
23 14.09 С 1 н/о н/о +14.0 +8.9 71 +14 +14 1030.4 1006.4
00 15.09 СЗ 2 н/о н/о +12.1 +10.3 89 +11 +11 1029.6 1005.5
01 15.09 СВ 1 н/о н/о +12.1 +10.0 87 +12 +12 1029.4 1005.3
02 15.09 Ю 1 н/о н/о +11.5 +9.9 90 +11 +11 1028.7 1004.6
03 15.09 З 1 н/о н/о +10.2 +9.6 96 +10 +10 1028.6 1004.4
04 15.09 СЗ 1 н/о н/о +10.3 +9.6 95 +10 +10 1028.3 1004.1
05 15.09 СВ 1 н/о н/о +10.0 +9.1 94 +9 +9 1028.3 1004.1
06 15.09 СВ 1 н/о н/о +11.4 +10.0 91 +11 +11 1027.9 1003.8 +9.6 +18.7
07 15.09 СВ 1 н/о н/о +13.6 +10.0 79 +14 +14 1027.9 1004.0
08 15.09 ЮВ 3 н/о н/о +16.2 +9.1 63 +16 +16 1027.1 1003.4
09 15.09 Ю 2 н/о н/о +18.3 +9.9 58 +19 +19 1026.5 1003.0
10 15.09 ЮВ 2 н/о н/о +20.2 +11.1 56 +22 +22 комфорт 1025.7 1002.4
11 15.09 В 2 н/о н/о +20.5 +11.2 55 +23 +23 комфорт 1024.9 1001.6
12 15.09 ЮВ 1 н/о н/о +21.9 +12.2 54 +24 +24 комфорт 1024.1 1000.9
13 15.09 Ю 1 н/о н/о +23.7 +13.0 51 +26 +26 жарко 1023.2 1000.2
14 15.09 ЮВ 1 н/о н/о +23.7 +13.2 52 +26 +26 жарко 1022.3 999.3
15 15.09 Ю 2 н/о н/о +24.6 +13.5 50 +27 +27 жарко 1021.5 998.6
16 15.09 ЮВ 3 н/о н/о +24.1 +14.0 53 +26 +26 жарко 1020.7 997.8
17 15.09 ЮВ 3 н/о н/о +22.2 +14.5 62 +26 +26 душно 1020.3 997.3
18 15.09 ЮВ 2 н/о н/о +21.1 +14.3 65 +24 +24 комфорт 1020.1 997.0 +11.0 +25.2
19 15.09 З 1 н/о н/о +18.6 +14.1 75 +20 +20 1020.3 997.0
20 15.09 З 2 н/о н/о +18.1 +14.4 79 +19 +19 1020.4 997.0
21 15.09 З 2 н/о н/о +17.8 +14.7 82 +18 +18 1020.3 996.9
22 15.09 Ю 1 н/о н/о +18.0 +14.7 81 +19 +19 1020.3 996.9
23 15.09 ЮВ 1 н/о н/о +16.6 +14.2 86 +17 +17 1020.5 997.0
00 16.09 ЮЗ 1 н/о н/о +17.4 +14.6 84 +18 +18 1019.8 996.4
01 16.09 Ю 2 н/о н/о +15.0 +13.9 93 +15 +15 1019.9 996.3
02 16.09 ЮЗ 1 н/о н/о +14.5 +13.4 93 +15 +15 1019.6 996.0
03 16.09 ЮЗ 2 н/о н/о +15.1 +13.8 92 +15 +15 1019.3 995.7
04 16.09 З 1 н/о н/о +13.9 +13.3 96 +14 +14 1019.2 995.5
05 16.09 Ю 1 н/о н/о +14.5 +13.3 93 +15 +15 1019.1 995.5
06 16.09 З 1 н/о н/о +17.5 +15.1 86 +19 +19 1018.7 995.3 +13.7 +21.1
07 16.09 С 2 н/о н/о +18.4 +15.9 85 +20 +20 1019.1 995.8
08 16.09 СВ 4 н/о н/о +19.3 +16.1 82 +21 +21 комфорт 1019.4 996.2
09 16.09 СЗ 4 н/о н/о +23.0 +15.7 63 +27 +27 душно 1018.8 995.9
10 16.09 СЗ 4 н/о н/о +23.5 +15.1 59 +26 +26 жарко 1018.6 995.7
11 16.09 СЗ 4 н/о н/о +24.6 +15.8 58 +28 +28 душно 1017.9 995.1
12 16.09 С 4 н/о н/о +25.7 +15.7 54 +29 +29 душно 1016.8 994.1
13 16.09 СЗ 3 н/о н/о +26.4 +13.4 45 +28 +28 жарко 1016.0 993.4
14 16.09 СЗ 4 н/о н/о +26.5 +12.3 41 +28 +28 жарко 1015.3 992.7
15 16.09 З 7 н/о н/о +27.3 +12.3 39 +29 +29 жарко 1014.9 992.4
16 16.09 З 6 н/о н/о +26.0 +12.9 44 +28 +28 жарко 1014.8 992.2
17 16.09 З 4 н/о н/о +25.0 +13.5 49 +27 +27 жарко 1014.5 991.8
18 16.09 З 4 н/о н/о +24.1 +13.5 52 +26 +26 жарко 1014.7 991.9 +17.0 +27.7
19 16.09 СЗ 3 н/о н/о +22.9 +13.9 57 +26 +26 жарко 1015.0 992.1
20 16.09 З 2 н/о н/о +21.8 +14.2 62 +25 +25 комфорт 1015.2 992.3
21 16.09 СЗ 3 н/о н/о +21.3 +14.2 64 +24 +24 комфорт 1015.5 992.5
22 16.09 З 2 н/о н/о +21.0 +14.1 65 +25 +25 комфорт 1015.3 992.3
23 16.09 З 2 н/о н/о +20.8 +13.8 64 +24 +24 комфорт 1015.0 992.0
00 17.09 СЗ 2 н/о н/о +20.3 +13.3 64 +23 +23 комфорт 1015.1 992.0
01 17.09 СЗ 2 н/о н/о +19.5 +12.9 66 +22 +22 комфорт 1014.7 991.6
02 17.09 СЗ 3 н/о н/о +19.5 +14.3 72 +21 +21 комфорт 1014.5 991.4
03 17.09 З 3 н/о н/о +19.1 +14.6 75 +21 +21 комфорт 1014.5 991.4
04 17.09 СЗ 2 н/о н/о +18.6 +14.3 76 +20 +20 1014.6 991.4
05 17.09 СЗ 2 н/о н/о +18.3 +14.4 78 +19 +19 1015.0 991.8 0.0
06 17.09 С 3 н/о н/о +19.1 +14.3 74 +21 +21 комфорт 1015.0 991.8 +18.3 +24.2 0.0
07 17.09 СЗ 4 н/о н/о +19.0 +13.1 69 +20 +20 1015.7 992.5
08 17.09 СЗ 3 н/о н/о +20.3 +14.1 68 +23 +23 комфорт 1015.8 992.7
09 17.09 С 5 н/о н/о +19.2 +14.1 72 +20 +20 1016.1 992.9
10 17.09 С 5 н/о н/о +16.8 +11.7 72 +16 +16 1016.3 992.9
11 17.09 С 4 н/о н/о +17.2 +10.8 66 +17 +17 1016.1 992.7
12 17.09 С 4 н/о н/о +16.4 +11.4 72 +16 +16 1015.6 992.2
13 17.09 СВ 4 н/о н/о +17.3 +12.6 74 +17 +17 1015.1 991.8
14 17.09 СЗ 2 н/о н/о +18.4 +13.6 74 +19 +19 1014.3 991.1
15 17.09 СЗ 3 н/о н/о +18.8 +13.5 71 +20 +20 1014.1 990.9
16 17.09 СЗ 3 н/о н/о +19.3 +13.4 69 +21 +21 комфорт 1013.4 990.3
17 17.09 З 2 н/о н/о +18.6 +13.3 71 +20 +20 1013.5 990.3
18 17.09 З 5 н/о н/о +18.7 +12.5 67 +19 +19 1014.0 990.8 +16.3 +20.3
19 17.09 З 6 н/о н/о +18.1 +11.8 67 +18 +18 1014.7 991.5
20 17.09 З 5 н/о н/о +17.5 +11.8 69 +17 +17 1015.7 992.4
21 17.09 З 6 н/о н/о +17.1 +11.6 70 +16 +16 1015.9 992.5
22 17.09 СЗ 5 н/о н/о +16.7 +10.9 69 +16 +16 1016.6 993.2
23 17.09 СЗ 4 н/о н/о +16.6 +10.6 68 +16 +16 1017.0 993.6
00 18.09 СЗ 4 н/о н/о +16.4 +9.3 63 +16 +16 1017.6 994.1
01 18.09 С 5 н/о н/о +14.5 +7.8 64 +13 +13 1018.2 994.6
02 18.09 СЗ 7 н/о н/о +14.4 +5.9 57 +12 +12 1019.0 995.3
03 18.09 СЗ 5 н/о н/о +13.1 +3.2 51 +11 +11 1020.1 996.3
04 18.09 СЗ 5
{13}
н/о н/о +12.3 +3.7 56 +10 +10 1021.0 997.1
05 18.09 СЗ 5 н/о н/о +11.6 +3.0 56 +9 +9 1022.0 998.0
06 18.09 СЗ 4
{13}
н/о н/о +11.8 +4.7 62 +10 +10 1022.6 998.6 +11.3 +18.8
07 18.09 СЗ 6
{13}
н/о н/о +12.5 +4.0 56 +10 +10 1023.2 999.3
08 18.09 СЗ 5 н/о н/о +13.5 +4.2 53 +12 +12 1023.7 999.8
09 18.09 СЗ 5
{13}
н/о н/о +14.3 +3.3 48 +13 +13 1023.7 999.9
10 18.09 СЗ 5 н/о н/о +15.9 +3.1 42 +15 +15 1023.6 999.9
11 18.09 СЗ 5 н/о н/о +16.4 +1.6 37 +16 +16 1023.4 999.8
12 18.09 СЗ 5
{13}
н/о н/о +17.2 +0.8 33 +17 +17 1022.9 999.3
13 18.09 СЗ 5 н/о н/о +17.9 -0.7 28 +18 +18 1022.2 998.7
14 18.09 СЗ 5 н/о н/о +18.0 -1.2 27 +18 +18 1022.0 998.5
15 18.09 СЗ 5 н/о н/о +18.4 -0.4 28 +18 +18 1021.6 998.2
16 18.09 СЗ 4 н/о н/о +17.8 -0.6 29 +18 +18 1021.6 998.1
17 18.09 С 4 н/о н/о +15.3 +0.6 37 +15 +15 1022.1 998.4
18 18.09 С 2
{13}
н/о н/о +14.0 +1.1 41 +14 +14 1022.8 999.0 +11.6 +18.9
19 18.09 С 3 н/о н/о +13.4 +1.8 45 +13 +13 1023.7 999.8
20 18.09 З 3 н/о н/о +11.2 +3.2 58 +10 +10 1024.3 1000.2
21 18.09 З 3 н/о н/о +10.2 +3.4 63 +8 +8 1024.6 1000.4
22 18.09 З 2 н/о н/о +10.1 +3.7 64 +9 +9 1024.6 1000.4
23 18.09 СЗ 2 н/о н/о +10.3 +4.4 67 +9 +9 1024.7 1000.5
00 19.09 СЗ 3 н/о н/о +10.6 +3.7 62 +9 +9 1024.6 1000.5
01 19.09 СЗ 2 н/о н/о +10.8 +3.7 61 +10 +10 1024.5 1000.4
02 19.09 СЗ 3 н/о н/о +10.4 +3.4 62 +9 +9 1024.4 1000.3
03 19.09 СЗ 2 н/о н/о +9.7 +3.5 65 +8 +8 1024.6 1000.4
04 19.09 З 2 н/о н/о +9.6 +3.7 67 +8 +8 1024.9 1000.7
05 19.09 СЗ 2 н/о н/о +9.5 +3.7 67 +8 +8 1025.4 1001.2
06 19.09 СЗ 4 н/о н/о +10.7 +4.2 64 +8 +8 1026.0 1001.8 +9.3 +14.2
07 19.09 СЗ 4 н/о н/о +12.1 +4.6 60 +10 +10 1026.3 1002.3
08 19.09 СЗ 4 н/о н/о +13.3 +5.2 58 +12 +12 1027.0 1003.0
09 19.09 С 5 н/о н/о +13.8 +4.1 52 +12 +12 1026.9 1003.0
10 19.09 СЗ 4 н/о н/о +14.7 +4.4 50 +14 +14 1026.7 1002.9
11 19.09 СЗ 5 н/о н/о +14.8 +2.9 45 +14 +14 1026.4 1002.6
12 19.09 СЗ 4 н/о н/о +15.8 +3.5 44 +15 +15 1026.0 1002.3
13 19.09 СЗ 4 н/о н/о +16.9 +2.4 38 +16 +16 1025.9 1002.2
14 19.09 СЗ 6 н/о н/о +16.8 +1.6 36 +16 +16 1025.9 1002.2
15 19.09 С 6 н/о н/о +16.2 +1.7 38 +15 +15 1025.8 1002.1
16 19.09 С 5 н/о н/о +15.1 +1.4 39 +14 +14 1025.9 1002.1
17 19.09 С 6 н/о н/о +14.0 +1.9 44 +12 +12 1026.3 1002.4
18 19.09 С 5 н/о н/о +13.2 +2.0 47 +11 +11 1027.3 1003.3 +10.5 +17.2
19 19.09 С 4 н/о н/о +11.8 +2.1 51 +10 +10 1027.9 1003.8
20 19.09 С 4 н/о н/о +12.0 +1.4 48 +10 +10 1028.7 1004.6
21 19.09 СЗ 3 н/о н/о +10.7 +2.0 55 +9 +9 1028.8 1004.6
22 19.09 СЗ 2 н/о н/о +9.5 +2.6 62 +8 +8 1029.0 1004.7
23 19.09 СЗ 3 н/о н/о +9.0 +2.5 64 +7 +7 1029.1 1004.7
00 20.09 СЗ 3 н/о н/о +8.9 +2.5 64 +7 +7 1029.1 1004.7
01 20.09 СЗ 3 н/о н/о +8.1 +2.6 68 +6 +6 1029.1 1004.6
02 20.09 СЗ 3 н/о н/о +7.9 +2.8 70 +5 +5 1028.9 1004.4
03 20.09 З 3 н/о н/о +7.5 +2.7 72 +5 +5 1028.8 1004.3
04 20.09 СЗ 2 н/о н/о +7.0 +2.7 74 +5 +5 1029.2 1004.6
05 20.09 З 1 н/о н/о +7.0 +2.7 74 +6 +6 1029.2 1004.6
06 20.09 СЗ 1 н/о н/о +8.1 +3.2 71 +8 +8 1029.3 1004.8 +6.8 +13.3
07 20.09 СЗ 3 н/о н/о +10.8 +3.7 61 +9 +9 1029.3 1005.1
08 20.09 СЗ 2 н/о н/о +12.9 +4.6 57 +12 +12 1029.6 1005.5
09 20.09 С 3 н/о н/о +13.8 +4.2 52 +13 +13 1029.5 1005.5
10 20.09 С 2 н/о н/о +15.0 +3.9 47 +15 +15 1029.0 1005.1
11 20.09 С 4 н/о н/о +15.2 +3.4 45 +14 +14 1028.3 1004.5

 

Местоположение метеостанции Вена электроподстанция (Австрия): широта 48.13 долгота 16.42 высота над уровнем моря 199 м.

В архиве по умолчанию представлена погода в Вене электроподстанция за последнюю неделю. Архивные данные за месяц целиком и за предыдущие месяцы, начиная с января 2011 года, Вы можете получить, выбрав интересующий диапазон дат из раскрывающегося списка и нажав кнопку "Ввод!".


*Определитесь, кто Вы:
робот инопланетянин человек

Внимание! Время в таблицах - всемирное. Для получения местного времени необходимо прибавить поправку, которая равна 1 ч.

Смотрите также архив погоды в соседних городах и на ближайших метеорологических станциях:

Погода в Вене город (Австрия) (9 км)
Погода в Вене аэропорт (Австрия) (11 км)
Погода в Вене Донауфельд (Австрия) (13 км)
Погода в Грос-Энцерсдорфе (Австрия) (14 км)
Погода в Вене (Австрия) (14 км)
Погода в Гумпольдскирхене (Австрия) (15 км)
Погода в Мариябрунн (Австрия) (16 км)
Погода в Зайберсдорфе (Австрия) (18 км)
Погода в Тульн-ан-дер-Донау (Австрия) (31 км)
Погода в Айзенштадте (Австрия) (32 км)

Пояснения к столбцам:

Ветер - указаны скорость ветра в м/с - средняя за 10 мин, порывы в срок и между сроками (в фигурных скобках) и направление, откуда дует ветер: С - северный, СВ - северо-восточный, В - восточный, ЮВ - юго-восточный, Ю - южный, ЮЗ - юго-западный, З - западный, СЗ - северо-западный.
Видимость - горизонтальная дальность видимости в метрах или километрах. При видимости от 1 до 10 км при отсутствии осадков обычно наблюдается дымка, при ухудшении видимости до 1 км и менее - туман. В сухую погоду видимость может ухудшаться дымом, пылью или мглою.
Явления - указаны атмосферные явления, наблюдавшиеся в срок или в последний час перед сроком; фигурными скобками обозначены явления, наблюдавшиеся между сроками (за 1-3 часа до срока); квадратными скобками обозначены град или гололедные отложения с указанием их диаметра в мм.
Облачность - указаны через наклонную черту общая и нижняя облачность в баллах и высота нижней границы облаков в метрах; квадратными скобками обозначены формы облаков: Ci - перистые, Cs - перисто-слоистые, Cc - перисто-кучевые, Ac - высококучевые, As - высокослоистые, Sc - слоисто-кучевые, Ns - слоисто-дождевые, Cu - кучевые, Cb - кучево-дождевые. Подробнее классификацию облаков см. в Атласе облаков (PDF).
T - Температура воздуха - температура, измеренная на высоте 2 м над землей.
Td - Температура точки росы - температура, при понижении до которой содержащийся в воздухе водяной пар достигнет насыщения.
f - Относительная влажность воздуха - влажноcть воздуха, измеренная на высоте 2 м над землей.
Te - Эффективная температура - температура, которую ощущает одетый по сезону человек в тени. Характеристика душности погоды. При расчете учитывается влияние влажности воздуха и скорости ветра на теплоощущения человека.
Tes - Эффективная температура на солнце - температура, которую ощущает человек, с поправкой на солнечный нагрев. Характеристика знойности погоды. Зависит от высоты солнца над горизонтом, облачности и скорости ветра. Ночью, в пасмурную погоду, а также при ветре 12 м/с и более поправка равна нулю.
P - Атмосферное давление - приведенное к уровню моря атмосферное давление.
Po - Атмосферное давление - измеренное на уровне метеостанции атмосферное давление.
Tmin - Минимальная температура - минимум температуры воздуха на высоте 2 м над землей.
Tmax - Максимальная температура - максимум температуры воздуха на высоте 2 м над землей.
R - Количество осадков - Количество выпавших осадков за период времени, мм. При наведении курсора мыши на число - период времени, за который выпало указанное количество осадков.
R24 - Количество осадков - Количество выпавших осадков за 24 часа, мм.
S - Снежный покров - Высота снежного покрова, см. При наведении курсора мыши на число - состояние снежного покрова и степень покрытия местности в баллах.